Find Hawk 5B

NORAD ID: 52756 Int'l Des: 2022-057 Owner: HE360 Country: US operational
LEOCIRCULARRETROGRADE

Live Position

Loading 3D Globe...

About Hawk 5B

Description loading...

Upcoming Passes

Passes for default location (London). Set your location on the main map for personalized predictions.

Altitude History

Loading altitude history...

Two-Line Element Set

1 52756U 22057AA 26104.46277147 .00011072 00000-0 20557-3 0 9995
2 52756 97.6510 258.5202 0003748 293.5220 66.5636 15.49114315216470
Epoch: Apr 14, 2026 • Age: 10 hours

Current Status

Altitude 426.8 km
Velocity 7.65 km/s
Sub-Earth Point -18.73°S, 85.64°W
Launch Date May 25, 2022
Age 3.8 years
Type other

Technical Details

Classification Payload
Mass 31.00 kg
Dry Mass 30.00 kg
Total Mass 31.00 kg
Length 0.50 m
Diameter 0.40 m
Span 1.00 m
Shape Box + 2 pan
Manufacturer UTIAS
Bus Type Defiant
Phase Status In Orbit
Owner/State HE360/US

Most Searched